Regional Weather Roundup
Issued by NWS Newport/Morehead, NC

Current Version | Previous Version | Text Only | Print | Product List | Glossary Off
Versions: 1 2 3 4 5 6 7 8 9 10 11 12 13 14 15 16 17 18 19 20 21 22 23 24 25 26 27 28 29 30 31 32 33 34 35 36 37 38 39 40 41 42 43 44 45 46 47 48 49 50

702
ASUS42 KMHX 221924
RWRMHX
WEATHER ROUNDUP FOR EASTERN NORTH CAROLINA
NATIONAL WEATHER SERVICE NEWPORT/MOREHEAD CITY NC
300 PM EDT FRI MAY 22 2015

NOTE: "FAIR" INDICATES FEW OR NO CLOUDS BELOW 12,000 FEET
WITH NO SIGNIFICANT WEATHER AND/OR OBSTRUCTIONS TO VISIBILITY

NCZ015>017-031-032-045>047-102-103-222000-
NORTH COAST

CITY           SKY/WX    TMP DP  RH WIND       PRES   REMARKS
EDENTON        SUNNY     71  47  42 N8        30.17S
ELIZABETH CITY SUNNY     71  46  40 VRB3      30.16S
KITTY HAWK     CLEAR     67  42  40 E6        30.16S
MANTEO         SUNNY     67  44  43 NE8       30.18R

$$

NCZ045>047-081-094-103-104-222000-
CENTRAL COAST

CITY           SKY/WX    TMP DP  RH WIND       PRES   REMARKS
FRISCO         SUNNY     68  49  50 VRB6      30.17S
SWANQUARTER      N/A     72 N/A N/A CALM      30.12S

$$

NCZ095-097-098-100-101-222000-
SOUTHERN COAST

CITY           SKY/WX    TMP DP  RH WIND       PRES   REMARKS
BEAUFORT       PTSUNNY   72  52  49 CALM      30.17S
CEDAR ISLAND     N/A     68 N/A N/A NW3       30.21S
JACKSONVILLE   MOSUNNY   72  50  45 NW8       30.17S
PINEY ISLAND   CLEAR    N/A N/A N/A N8        30.17S
WILMINGTON     PTSUNNY   71  55  56 NE8       30.17S


$$

NCZ011>013-027>030-043-044-078>080-089-090>093-098-222000-
COASTAL PLAIN

CITY           SKY/WX    TMP DP  RH WIND       PRES   REMARKS
AHOSKIE        SUNNY     69  44  39 CALM      30.17S
CLINTON        SUNNY     73  50  45 N7        30.19S
ELIZABETHTOWN  PTSUNNY   72  51  48 CALM      30.18S
GOLDSBORO      SUNNY     72  46  38 VRB5      30.17S
GREENVILLE     SUNNY     72  45  37 CALM      30.19S
HAVELOCK       SUNNY     74  51  44 N7        30.18S
KENANSVILLE    SUNNY     70  47  44 N7        30.19S
KINSTON        SUNNY     72  45  37 N7        30.19S
NEW BERN       MOSUNNY   74  51  44 NW9       30.19R
RICHLANDS      MOSUNNY   72  48  43 CALM      30.18S
ROCKY MOUNT    SUNNY     72  42  34 CALM      30.18S
WASHINGTON     SUNNY    N/A N/A N/A CALM      30.18S
WHITEVILLE     SUNNY     73  52  46 W6        30.18R

$$

AMZ130-135-150-152-154-156-158-170-250-252-270-ANZ085-086-088-633-658-670-222000-
MARINE OBSERVATIONS

STATION/POSITION TIME  TEMP    WIND        PRES    WAVE   SWELL
                       AIR SEA DIR/SP/G            HT/PER HT/PER
                 (UTC) (F)     (DEG/KT/KT) (MB)    (FT/S) (FT/S)
CHESAPEAKE LIGHT 1900   65     290/ 10/ 10 1021.9
64 E VA BEACH    1850   61 61  280/ 10/ 12 1020.6    5/ 7   5/ 7
DUCK             1900   63 67   40/  8/ 10 1020.5
2 E DUCK         1811      65                N/A     3/ 8
OREGON INLET     1900   63 67   30/  8/ 10 1021.8
13E OREGON INLT  1900      62                N/A     4/ 8
HATTERAS CG      1900   65 72  360/  7/  9 1021.3
DIAMOND BUOY     1850   63 77   10/ 14/ 17 1021.6    4/ 8   3/ 8
CAPE LOOKOUT     1900   67      60/ 11/ 13 1021.4
BEAUFORT LAB     1900   69 74   10/  3/  9 1020.8
27 SE WRIGHTSVLE 1900   64 77   60/  6/ 10   N/A
5 SE WRIGHTSVLE  1808   67 76  100/  8/ 12 1021.9
225 S CAPE HAT   1850   73 75   60/ 17/ 19 1019.2    4/ 6   2/ 8
41 SE CHARLESTON 1850   70 76   30/ 17/ 21 1020.8    6/ 6   2/11

$$



USA.gov is the U.S. government's official web portal to all federal, state and local government web resources and services.